Location: Unspecified
(47.4992°N, 121.7766°W)
Time: 03:41:22
(UTC-08:00)

Cosmos 2058 - Pass Details

Date: 29 January 2021
Orbit: 561 x 584 km, 82.5° (Epoch: 24 February)

Event Time Altitude Azimuth Distance (km) Brightness Sun altitude
Rises 05:39:08 0° 1° (N) 2,775 6.4 -19.9°
Reaches altitude 10° 05:41:41 10° 16° (NNE) 1,870 5.6 -19.4°
Maximum altitude 05:45:02 24° 70° (ENE) 1,199 5.2 -18.9°
Drops below altitude 10° 05:48:22 10° 125° (SE) 1,851 6.4 -18.3°
Sets 05:50:52 0° 140° (SE) 2,740 7.1 -17.9°
